This demonstration page uses our WeatherBlox Daily Observations layout. Learn more.

Hourly Observations for May 28, 2017

Temp ( °F °C ) Dew Point ( °F °C ) Humidity (%) Winds ( mph kmh ) Pressure ( in mb ) Visibility ( mi km ) Precip ( " mm )
12:15 am 00:15 Clear 51 10.4 48 9.1 92 92 W 5 7 30.03 1017 10 16.09344 0 0
12:35 am 00:35 Clear 51 10.6 49 9.2 91 91 WSW 3 6 30.03 1017 10 16.09344 0 0
12:55 am 00:55 Clear 50 10.1 47 8.6 91 91 W 5 7 30.06 1018 10 16.09344 0 0
1:15 am 01:15 Clear 49 9.5 47 8.3 92 92 WSW 3 6 30.06 1018 10 16.09344 0 0
1:35 am 01:35 Clear 50 10 47 8.6 91 91 W 7 11 30.06 1018 10 16.09344 0 0
1:55 am 01:55 Clear 49 9.5 47 8.1 91 91 WNW 6 9 30.06 1018 10 16.09344 0 0
2:15 am 02:15 Clear 48 8.9 46 7.5 91 91 W 7 11 30.06 1018 10 16.09344 0 0
2:35 am 02:35 Clear 49 9.2 46 7.8 91 91 WNW 7 11 30.06 1018 10 16.09344 0 0
2:55 am 02:55 Clear 48 9.1 46 7.8 92 92 NW 7 11 30.06 1018 10 16.09344 0 0
3:15 am 03:15 Clear 48 8.8 46 7.6 92 92 NW 5 7 30.06 1018 10 16.09344 0 0
3:35 am 03:35 Clear 46 7.9 44 6.7 92 92 WNW 7 11 30.06 1018 10 16.09344 0 0
3:55 am 03:55 Clear 49 9.3 46 8 92 92 WNW 7 11 30.06 1018 10 16.09344 0 0
4:15 am 04:15 Clear 49 9.3 46 7.7 90 90 WNW 7 11 30.06 1018 10 16.09344 0 0
4:35 am 04:35 Clear 49 9.3 46 7.5 89 89 WNW 6 9 30.06 1018 10 16.09344 0 0
4:55 am 04:55 Clear 47 8.6 45 7 90 90 W 6 9 30.06 1018 10 16.09344 0 0
5:15 am 05:15 Clear 47 8.5 45 7 90 90 WNW 8 13 30.06 1018 10 16.09344 0 0
5:35 am 05:35 Partly Cloudy 47 8.2 44 6.7 90 90 NW 6 9 30.06 1018 10 16.09344 0 0
5:55 am 05:55 Partly Cloudy 46 7.5 43 6.1 91 91 NW 8 13 30.06 1018 10 16.09344 0 0
6:15 am 06:15 Sunny 47 8.2 44 6.8 91 91 NW 8 13 30.06 1018 10 16.09344 0 0
6:35 am 06:35 Sunny 47 8.4 45 7 91 91 WNW 9 15 30.06 1018 10 16.09344 0 0
6:55 am 06:55 Sunny 49 9.3 45 7.3 87 87 WNW 12 19 30.06 1018 10 16.09344 0 0
7:15 am 07:15 Sunny 50 10 46 7.9 87 87 WNW 12 19 30.06 1018 10 16.09344 0 0
7:35 am 07:35 Sunny 51 10.7 47 8.1 84 84 WNW 13 20 30.03 1017 10 16.09344 0 0
7:55 am 07:55 Sunny 53 11.5 47 8.5 82 82 WNW 13 20 30.03 1017 10 16.09344 0 0
8:15 am 08:15 Sunny 54 12.2 48 9 81 81 NW 12 19 30.03 1017 10 16.09344 0 0
8:35 am 08:35 Sunny 56 13.2 49 9.2 77 77 WNW 12 19 30.03 1017 10 16.09344 0 0
8:55 am 08:55 Sunny 58 14.5 50 9.8 74 74 WNW 12 19 30 1016 10 16.09344 0 0
9:15 am 09:15 Sunny 60 15.8 49 9.7 67 67 WNW 13 20 30 1016 10 16.09344 0 0
9:35 am 09:35 Sunny 62 16.9 50 9.8 63 63 WNW 15 24 29.97 1015 10 16.09344 0 0
9:55 am 09:55 Sunny 64 18 51 10.7 63 63 WNW 12 19 29.97 1015 10 16.09344 0 0
10:15 am 10:15 Sunny 66 19 51 10.5 58 58 WNW 13 20 29.97 1015 10 16.09344 0 0
10:35 am 10:35 Sunny 67 19.7 51 10.5 56 56 NW 15 24 29.97 1015 10 16.09344 0 0
10:55 am 10:55 Sunny 69 20.8 51 10.8 53 53 W 10 17 29.94 1014 10 16.09344 0 0
11:15 am 11:15 Sunny 71 21.8 51 10.5 49 49 WNW 16 26 29.94 1014 10 16.09344 0 0
11:35 am 11:35 Sunny 72 22.4 49 9.5 44 44 WNW 14 22 29.94 1014 10 16.09344 0 0
11:55 am 11:55 Sunny 73 23 49 9.5 42 42 WNW 15 24 29.94 1014 10 16.09344 0 0
12:15 pm 12:15 Partly Cloudy 74 23.4 47 8.4 38 38 W 16 26 29.94 1014 10 16.09344 0 0
12:35 pm 12:35 Cloudy 75 23.9 47 8.5 38 38 WNW 16 26 29.91 1013 10 16.09344 0 0
12:55 pm 12:55 Cloudy 72 22.4 47 8.1 40 40 WNW 13 20 29.94 1014 10 16.09344 0 0
1:15 pm 13:15 Mostly Cloudy 75 23.7 48 8.8 39 39 W 15 24 29.91 1013 10 16.09344 0 0
1:35 pm 13:35 Mostly Cloudy 74 23.2 46 7.9 38 38 NW 12 19 29.94 1014 10 16.09344 0 0
1:55 pm 13:55 Partly Cloudy 76 24.3 44 6.8 33 33 NW 21 33 29.91 1013 10 16.09344 0 0
2:15 pm 14:15 Partly Cloudy 76 24.5 43 6.3 31 31 NW 17 28 29.91 1013 10 16.09344 0 0
2:35 pm 14:35 Partly Cloudy 76 24.7 41 5.2 28 28 WNW 13 20 29.91 1013 10 16.09344 0 0
2:55 pm 14:55 Mostly Cloudy 75 23.8 41 4.8 29 29 WNW 13 20 29.91 1013 10 16.09344 0 0
3:15 pm 15:15 Partly Cloudy 78 25.3 42 5.8 29 29 NW 17 28 29.91 1013 10 16.09344 0 0
3:35 pm 15:35 Mostly Cloudy 76 24.4 45 7 33 33 N 25 41 29.91 1013 10 16.09344 0 0
3:55 pm 15:55 Partly Cloudy 76 24.6 43 5.9 30 30 N 16 26 29.91 1013 10 16.09344 0 0
4:15 pm 16:15 Mostly Cloudy 76 24.6 42 5.8 30 30 N 16 26 29.91 1013 10 16.09344 0 0
4:35 pm 16:35 Partly Cloudy 78 25.8 40 4.7 26 26 NNW 15 24 29.91 1013 10 16.09344 0 0
4:55 pm 16:55 Sunny 75 24 41 4.8 29 29 NW 14 22 29.91 1013 10 16.09344 0 0
5:15 pm 17:15 Mostly Cloudy 74 23.6 44 6.5 33 33 W 3 6 29.94 1014 10 16.09344 0 0
5:35 pm 17:35 Mostly Cloudy 75 24 43 6.1 32 32 W 9 15 29.91 1013 10 16.09344 0 0
5:55 pm 17:55 Mostly Cloudy 76 24.4 42 5.7 30 30 WNW 6 9 29.91 1013 10 16.09344 0 0
6:15 pm 18:15 Mostly Cloudy 77 25 43 6.1 30 30 NW 7 11 29.91 1013 10 16.09344 0 0
6:35 pm 18:35 Partly Cloudy 77 25 43 5.9 29 29 WNW 6 9 29.88 1012 10 16.09344 0 0
6:55 pm 18:55 Partly Cloudy 77 25 42 5.3 28 28 WNW 8 13 29.88 1012 10 16.09344 0 0
7:15 pm 19:15 Sunny 77 25 42 5.6 29 29 WNW 8 13 29.88 1012 10 16.09344 0 0
7:35 pm 19:35 Partly Cloudy 75 23.8 46 7.9 36 36 WSW 7 11 29.88 1012 10 16.09344 0 0
7:55 pm 19:55 Mostly Cloudy 73 22.6 48 8.9 42 42 WSW 6 9 29.91 1013 10 16.09344 0 0
8:15 pm 20:15 Mostly Cloudy 71 21.8 49 9.5 46 46 NW 5 7 29.91 1013 10 16.09344 0 0
8:35 pm 20:35 Mostly Cloudy 72 22.1 47 8.4 42 42 NW 15 24 29.94 1014 10 16.09344 0 0
8:55 pm 20:55 Mostly Cloudy with Nearby Thunderstorms 64 18 50 10 60 60 WNW 7 11 29.97 1015 10 16.09344 0.02 0.508
9:15 pm 21:15 Cloudy 65 18.5 48 9 54 54 NNW 3 6 29.97 1015 10 16.09344 0 0
9:35 pm 21:35 Mostly Cloudy 61 16.2 52 10.9 71 71 WSW 6 9 30 1016 10 16.09344 0 0
9:55 pm 21:55 Mostly Cloudy 62 16.9 51 10.8 67 67 WNW 12 19 29.97 1015 10 16.09344 0 0
10:15 pm 22:15 Cloudy 62 16.8 51 10.6 67 67 W 14 22 29.97 1015 10 16.09344 0 0
10:35 pm 22:35 Mostly Cloudy 61 16.1 51 10.6 70 70 W 6 9 30 1016 10 16.09344 0 0
10:55 pm 22:55 Mostly Cloudy 61 16.2 50 9.9 66 66 N 16 26 30 1016 10 16.09344 0 0
11:15 pm 23:15 Partly Cloudy 60 15.7 49 9.4 66 66 NNW 9 15 30 1016 10 16.09344 0 0
11:35 pm 23:35 Clear 58 14.6 47 8.6 67 67 NNW 7 11 30 1016 10 16.09344 0 0
11:55 pm 23:55 Clear 55 13 48 8.7 75 75 NW 8 13 30.03 1017 10 16.09344 0 0

Powered by AerisWeather